This is the latest recevied weather packets stored in our database for station/object W2OBX. If no packets are shown the sender has not sent any weather packets the latest 10 day(s).
| Time | Temp. | Humidity | Pressure | Rain* | Wind** | Luminosity | Snow |
|---|---|---|---|---|---|---|---|
| 1777853422 | 15° C | 44% | 1016.9 hPa | 0 mm | - | 2 W/m² | - |
| 1777853120 | 15.56° C | 44% | 1017 hPa | 0 mm | - | 3 W/m² | - |
| 1777852817 | 15.56° C | 43% | 1017 hPa | 0 mm | - | 4 W/m² | - |
| 1777852515 | 15.56° C | 44% | 1016.9 hPa | 0 mm | - | 5 W/m² | - |
| 1777852212 | 15.56° C | 45% | 1017 hPa | 0 mm | - | 5 W/m² | - |
| 1777851909 | 16.11° C | 41% | 1017 hPa | 0 mm | - | 6 W/m² | - |
| 1777851608 | 16.11° C | 40% | 1017.2 hPa | 0 mm | - | 7 W/m² | - |
| 1777851304 | 16.11° C | 42% | 1017.1 hPa | 0 mm | - | 8 W/m² | - |
| 1777851000 | 16.11° C | 41% | 1017.2 hPa | 0 mm | - | 8 W/m² | - |
| 1777850697 | 16.67° C | 41% | 1017.1 hPa | 0 mm | - | 9 W/m² | - |
| 1777850395 | 16.67° C | 41% | 1017.3 hPa | 0 mm | - | 9 W/m² | - |
| 1777850092 | 16.67° C | 40% | 1017.1 hPa | 0 mm | - | 10 W/m² | - |
| 1777849788 | 16.67° C | 39% | 1017.1 hPa | 0 mm | - | 11 W/m² | - |
| 1777849485 | 16.67° C | 42% | 1017 hPa | 0 mm | - | 11 W/m² | - |
| 1777849183 | 16.67° C | 40% | 1017.2 hPa | 0 mm | - | 12 W/m² | - |
| 1777848879 | 17.22° C | 40% | 1017.3 hPa | 0 mm | - | 12 W/m² | - |
| 1777848575 | 17.22° C | 39% | 1017.2 hPa | 0 mm | - | 13 W/m² | - |
| 1777848272 | 17.22° C | 40% | 1017.2 hPa | 0 mm | - | 13 W/m² | - |
| 1777847970 | 17.22° C | 39% | 1017.3 hPa | 0 mm | - | 14 W/m² | - |
| 1777847668 | 17.22° C | 41% | 1017.3 hPa | 0 mm | - | 15 W/m² | - |
| 1777847362 | 17.22° C | 41% | 1017.4 hPa | 0 mm | - | 15 W/m² | - |
| 1777847062 | 17.22° C | 39% | 1017.4 hPa | 0 mm | - | 16 W/m² | - |
| 1777846760 | 17.78° C | 39% | 1017.4 hPa | 0 mm | - | 16 W/m² | - |
| 1777846458 | 17.78° C | 40% | 1017.4 hPa | 0 mm | - | 18 W/m² | - |
| 1777846154 | 17.78° C | 38% | 1017.5 hPa | 0 mm | - | 29 W/m² | - |
* Rain latest hour (hover to see other rain measurements)
** Current wind speed in m/s (hover to see current wind gust speed)